M0ADS Weather Reports


time (UTC)temp
F
wind
direction
speed
knots
gust
knots
rain 1hr
in
rain 24hr
in
rain mn
in
humidity
%
barometer
mb
20260507160950 58 62 0.0 3.5 0.00 0.00 0.00 55 1013.7
20260507155445 58 140 0.0 3.5 0.00 0.00 0.00 56 1013.8
20260507153945 59 10 0.0 5.2 0.00 0.00 0.00 56 1013.8
20260507152448 57 260 0.0 3.5 0.00 0.00 0.00 58 1014.0
20260507150948 57 79 0.0 4.3 0.00 0.00 0.00 58 1014.2
20260507145448 57 90 0.0 2.6 0.00 0.00 0.00 58 1014.2
20260507143945 56 206 0.0 2.6 0.00 0.00 0.00 60 1014.3
20260507142446 55 78 0.0 3.5 0.00 0.00 0.00 61 1014.5
20260507140946 55 9 0.0 2.6 0.00 0.00 0.00 61 1014.6
20260507135444 55 156 0.0 4.3 0.00 0.00 0.00 61 1014.7
20260507133944 55 123 0.0 1.7 0.00 0.00 0.00 62 1014.6
20260507132444 55 134 0.0 2.6 0.00 0.00 0.00 62 1014.7
20260507130944 56 98 0.0 2.6 0.00 0.00 0.00 64 1014.6
20260507125444 56 119 0.9 4.3 0.00 0.00 0.00 63 1014.6
20260507123943 58 141 0.9 5.2 0.00 0.00 0.00 62 1014.7
20260507122443 58 143 0.0 5.2 0.00 0.00 0.00 62 1014.7
20260507120943 58 149 0.0 3.5 0.00 0.00 0.00 63 1014.9
20260507115441 57 238 0.0 2.6 0.00 0.00 0.00 65 1015.2
20260507113941 56 107 0.9 3.5 0.00 0.00 0.00 66 1015.0
20260507112441 55 121 0.9 3.5 0.00 0.00 0.00 69 1015.0
20260507110941 55 126 0.0 3.5 0.00 0.00 0.00 72 1015.3
20260507103937 52 342 0.0 6.1 0.00 0.00 0.00 75 1015.5
20260507102437 51 343 0.0 2.6 0.00 0.00 0.00 79 1015.6
20260507100935 50 288 0.0 4.3 0.00 0.00 0.00 79 1015.6
20260507095435 50 69 0.0 3.5 0.00 0.00 0.00 79 1015.6
20260507093934 50 319 0.0 2.6 0.00 0.00 0.00 80 1015.6
20260507092434 49 81 0.0 3.5 0.00 0.00 0.00 81 1015.5
20260507090934 48 85 0.0 3.5 0.00 0.00 0.00 81 1015.5
20260507085432 48 266 0.0 1.7 0.00 0.00 0.00 82 1015.6
20260507083931 48 180 0.0 3.5 0.00 0.00 0.00 81 1015.5
20260507082431 49 49 0.0 1.7 0.00 0.00 0.00 82 1015.6
20260507080930 48 63 0.0 2.6 0.00 0.00 0.00 82 1015.6
20260507075430 48 124 0.0 2.6 0.00 0.00 0.00 82 1015.5
20260507073928 47 113 0.0 2.6 0.00 0.00 0.00 84 1015.5
20260507072427 47 113 0.0 2.6 0.00 0.00 0.00 85 1015.4
20260507070926 47 342 0.0 1.7 0.00 0.00 0.00 87 1015.3
20260507065426 46 84 0.0 0.0 0.00 0.00 0.00 88 1015.3
20260507063926 45 84 0.0 2.6 0.00 0.00 0.00 90 1015.2
20260507062426 43 275 0.0 0.9 0.00 0.00 0.00 90 1015.2
20260507060926 42 238 0.0 0.0 0.00 0.00 0.00 90 1015.2
20260507055426 40 238 0.0 0.0 0.00 0.00 0.00 90 1015.2
20260507053924 39 238 0.0 0.0 0.00 0.00 0.00 90 1015.2
20260507052423 38 238 0.0 0.0 0.00 0.00 0.00 90 1015.0
20260507050922 38 238 0.0 0.0 0.00 0.00 0.00 90 1015.0
20260507045421 38 116 0.0 0.0 0.00 0.00 0.00 90 1015.0
20260507043921 37 116 0.0 0.0 0.00 0.00 0.00 90 1015.0
20260507042421 37 116 0.0 0.0 0.00 0.00 0.00 90 1014.9
20260507040920 37 116 0.0 0.0 0.00 0.00 0.00 90 1014.9
20260507035419 37 116 0.0 0.0 0.00 0.00 0.00 90 1014.9
20260507033919 37 116 0.0 0.0 0.00 0.00 0.00 90 1015.2
20260507032419 37 116 0.0 0.0 0.00 0.00 0.00 90 1015.2
20260507030917 37 116 0.0 0.0 0.00 0.00 0.00 90 1015.2
20260507025417 37 116 0.0 0.0 0.00 0.00 0.00 90 1015.2
20260507023916 37 116 0.0 0.0 0.00 0.00 0.00 89 1015.2
20260507022415 37 116 0.0 0.0 0.00 0.00 0.00 89 1015.2
20260507020915 37 116 0.0 0.0 0.00 0.00 0.00 89 1015.2
20260507015413 37 116 0.0 0.0 0.00 0.00 0.00 89 1015.2
20260507013913 37 116 0.0 0.0 0.00 0.00 0.00 89 1015.2
20260507012413 37 116 0.0 0.0 0.00 0.00 0.00 89 1015.3
20260507010913 37 116 0.0 0.0 0.00 0.00 0.00 89 1015.4
20260507005413 37 116 0.0 0.0 0.00 0.00 0.00 89 1015.5
20260507003912 38 116 0.0 0.0 0.00 0.00 0.00 88 1015.5
20260507002411 38 116 0.0 0.0 0.00 0.00 0.00 88 1015.5
20260507000910 38 116 0.0 0.0 0.00 0.00 0.00 88 1015.6
20260506235410 39 116 0.0 0.0 0.00 0.00 0.00 88 1015.6
20260506233909 39 116 0.0 0.0 0.00 0.00 0.00 87 1015.7
20260506232408 39 116 0.0 0.0 0.00 0.00 0.00 86 1015.6
20260506230908 40 116 0.0 0.0 0.00 0.00 0.00 86 1015.6
20260506225408 40 116 0.0 0.0 0.00 0.00 0.00 85 1015.7
20260506223908 41 116 0.0 0.0 0.00 0.00 0.00 84 1015.7
20260506222408 42 116 0.0 0.0 0.00 0.00 0.00 84 1015.8
20260506220906 42 116 0.0 0.0 0.00 0.00 0.00 83 1015.8
20260506215406 42 116 0.0 0.0 0.00 0.00 0.00 83 1015.7
20260506213906 42 116 0.0 0.9 0.00 0.00 0.00 82 1015.6
20260506212406 42 116 0.0 0.0 0.00 0.00 0.00 81 1015.6
20260506210904 43 116 0.0 0.0 0.00 0.00 0.00 80 1015.5
20260506205404 43 116 0.0 0.0 0.00 0.00 0.00 79 1015.3
20260506203904 44 116 0.0 0.0 0.00 0.00 0.00 79 1015.3
20260506202404 44 116 0.0 0.0 0.00 0.00 0.00 78 1015.2
20260506200903 45 116 0.0 0.9 0.00 0.00 0.00 77 1014.9
20260506195402 45 116 0.0 1.7 0.00 0.00 0.00 76 1014.8
20260506193901 46 119 0.0 0.9 0.00 0.00 0.00 74 1014.7
20260506192402 47 70 0.0 2.6 0.00 0.00 0.00 72 1014.5
20260506190901 47 155 0.9 3.5 0.00 0.00 0.00 71 1014.5
20260506185359 48 128 0.0 4.3 0.00 0.00 0.00 71 1014.4
20260506183859 48 157 0.0 3.5 0.00 0.00 0.00 71 1014.4
20260506182359 48 137 0.0 3.5 0.00 0.00 0.00 71 1014.4
20260506180859 48 38 0.0 1.7 0.00 0.00 0.00 70 1014.4
20260506175357 48 116 0.0 2.6 0.00 0.00 0.00 70 1014.3
20260506173857 49 142 0.0 1.7 0.00 0.00 0.00 68 1014.2
20260506172357 49 143 0.9 4.3 0.00 0.00 0.00 68 1014.2
20260506170855 50 175 0.9 3.5 0.00 0.00 0.00 67 1014.2
20260506165355 51 128 0.0 2.6 0.00 0.00 0.00 64 1014.1
20260506162353 50 126 0.0 2.6 0.00 0.00 0.00 68 1014.2